Notices

What's New in latest Release from April 7th, 2021:

- Updated Glossary, including Speed of Maximum Gust, and Total Hourly Precipitation

- Updated national and regional climate services offices contacts and prices information

- Addition of station inventory lists for 1981-2010, 1971-2000, and 1961-1990 Normals.

If you haven't already, please take our survey and provide feedback about our website: https://eccc.sondage-survey.ca/f/LanguageSelection.aspx?s=442ca660-fcf1-47c0-95a9-59707d6fd709

Hourly Data Report for November 17, 2019

SHEARWATER RCS
NOVA SCOTIA
Current Station Operator: ECCC - MSC

44°37'47.000" N
63°30'48.000" W
24.00 m
8205092
71264
AAW

Download Data

Hourly Data (November 2019)
Hourly Data Report for November 17, 2019
TIME
LST
Temp Definition
°C
Dew Point Definition
°C
Rel Hum Definition
%
Precip. Amount Definition
mm

Wind Dir Definition
10's deg

Wind Spd Definition
km/h
Visibility Definition
km
Stn Press Definition
kPa
Hmdx Definition


Wind Chill Definition


Weather Definition


00:00 -4.1 -10.6 60 0.0 34 5   102.67   -6 LegendNANA
01:00 -4.2 -9.8 65 0.0 33 12   102.65   -9 LegendNANA
02:00 -4.3 -9.7 66 0.0 33 12   102.65   -9 LegendNANA
03:00 -4.6 -9.7 68 0.0 33 11   102.68   -9 LegendNANA
04:00 -5.2 -9.5 71 0.0 35 8   102.70   -9 LegendNANA
05:00 -5.8 -9.9 73 0.0 36 5   102.75   -8 LegendNANA
06:00 -6.7 -10.4 75 0.0 31 4   102.80   -9 LegendNANA
07:00 -6.4 -9.8 77 0.0 34 7   102.89   -10 LegendNANA
08:00 -5.6 -9.1 76 0.0 2 6   102.92   -8 LegendNANA
09:00 -4.0 -8.5 71 0.0 34 10   102.96   -8 LegendNANA
10:00 -2.0 -7.4 66 0.0 35 9   102.95   -5 LegendNANA
11:00 -0.3 -7.5 58 0.0 2 8   102.94   -3 LegendNANA
12:00 0.9 -9.2 47 0.0 3 10   102.87     LegendNANA
13:00 1.3 -9.0 46 0.0 1 8   102.80     LegendNANA
14:00 2.0 -8.3 46 0.0 3 8   102.75     LegendNANA
15:00 1.8 -8.1 48 0.0 5 6   102.73     LegendNANA
16:00 1.4 -7.9 50 0.0 8 7   102.73     LegendNANA
17:00 0.1 -7.3 57 0.0 3 4   102.69     LegendNANA
18:00 -0.5 -6.9 62 0.0 1 5   102.68   -2 LegendNANA
19:00 -0.7 -6.3 66 0.0 2 9   102.66   -4 LegendNANA
20:00 -0.3 -5.9 66 0.0 4 9   102.62   -3 LegendNANA
21:00 -0.8 -5.5 70 0.0 4 13   102.57   -5 LegendNANA
22:00 -0.7 -5.0 73 0.0 5 14   102.54   -5 LegendNANA
23:00 -0.7 -4.9 73 0.0 4 14   102.45   -5 LegendNANA

Notes on Data Quality.

Legend

  • E = Estimated
  • M = Missing
  • NA = Not Available*
  • [empty] = Indicates an unobserved value
Date modified: